CAPE
2531 2606 2290 2220 2422 2640 2607 2983 2829 2839 2739 2673 2653 2646 2694 2814 2562 2446 2721 2685 2566 2746 3048 3059 3044 2735 2515 2668 2484 2680 3060 2926 3000 3362 3643 3758 3584 3508 3291 3416 3464 3295 3475 3461 3168 3257 3738 3900 3841 3826 3887 3588 3352 2999 2610 2684 2909 3073 3284 3214 2912 3531 3454 3579 2976 2659 2749 2575 1992 1140 1039 1595 750 1644 1169 949 1238 2217 2262 2562 3141 2823 2647 2747 2708
2488 2655 2644 2436 2255 2307 2226 2728 2838 2886 2636 2647 2681 2551 2679 2793 3058 3089 2751 2758 2877 2550 2786 2627 2903 2755 2638 2699 2890 2704 3009 3605 2866 2830 3330 3493 3226 2892 3200 3454 3517 3511 3421 3626 3553 3286 3533 3754 3642 3479 3717 3679 3187 2707 2443 2426 2460 2566 2787 2692 2535 2632 3630 3135 3247 3188 2512 2054 1863 1454 1409 1806 1073 1911 1726 1670 1946 2602 2444 2212 2292 2649 2613 2626 2536
2422 2924 2949 2834 2679 2416 2460 2729 2775 2815 2554 2464 2377 2243 2462 2643 2956 3001 2605 2367 2793 2681 2607 2545 2866 3062 2895 2926 3188 3034 3289 3045 2966 3344 3428 3514 3193 2768 2664 3040 3256 3130 3013 3331 3201 3206 3375 3446 3217 3274 3107 3062 3269 3017 2786 2737 2624 2592 2453 2455 2358 2214 2856 3339 3104 2669 2086 2134 2392 1178 1168 1942 1782 1336 1531 1981 2670 2773 2876 2268 2305 2423 2545 2493 2357
2628 3040 3026 2881 2662 2665 2779 2712 2531 2544 2421 2424 2304 2179 2151 2417 2867 2730 2575 2438 2437 2926 2793 2685 2795 3487 3285 3327 3453 3389 3352 3198 3173 3346 3681 3475 3094 3218 3231 3407 3245 3090 3068 3060 2960 3098 2974 3125 3024 3102 3570 3592 3606 3387 3016 2627 2518 2551 2356 2273 2508 2138 2475 3125 3455 2970 2511 2182 2506 2133 1870 1878 1897 1582 1769 2437 2442 2590 2274 2523 2519 2711 2821 2395 2199
2615 2886 2893 2899 2851 2786 2722 2630 2621 2635 2433 2290 2259 2119 2062 2187 2616 2654 2518 2433 2578 2665 3077 3185 3229 3476 2977 3088 3383 3486 3472 3383 3557 3215 3100 3104 3110 2961 3038 3313 3299 3227 3192 3255 3394 3450 3458 3276 3060 3289 3804 3625 3477 3061 2572 2336 2301 2488 2323 2375 2823 2599 2961 3122 3442 3276 3086 2774 2512 3269 3103 2444 2230 1901 2303 2464 2417 2462 2750 3183 2841 2862 3160 2714 2047
2797 2918 2979 2957 3143 3175 3044 2769 2670 2709 2624 2366 2239 2069 2102 2204 2523 2774 2643 2692 2857 2748 2718 2904 2883 3182 3086 2912 3098 3461 3717 3745 3768 3652 3129 3171 3200 3149 3256 3320 3179 3234 3192 3096 3290 3413 3282 3338 3302 3383 3444 3501 3144 2990 3094 3317 3155 2403 2410 2842 3021 2979 3210 3246 3306 3284 3174 2942 2934 2477 3115 2246 2098 2526 2656 2880 2457 2216 2498 2760 3002 3530 3127 2789 2456
2973 3039 3023 2921 3322 3343 3203 2964 2884 2705 2779 2437 2206 2220 2278 2289 2420 2553 2717 2761 2741 2643 2577 2809 2930 2883 3102 3050 2906 3334 3735 3602 3889 3921 3592 3332 3314 3502 3234 3353 3330 3276 3319 3120 3140 3188 3105 3119 3268 3422 3528 3572 3214 3060 3087 2930 2482 2272 3002 3547 2990 3161 2659 2791 2983 2855 2755 2581 2316 2526 2320 2372 2187 2015 2828 3093 3020 2757 2829 2839 2702 2712 2813 2674 2629
3008 2990 2988 3018 3212 3245 3189 3095 3208 3050 2906 2923 2754 2485 2382 2344 2584 2672 2750 2795 2640 2581 2612 2608 2807 2908 2903 2952 3184 3326 3683 3681 3864 4047 3761 3499 3329 3446 3420 3227 3204 3311 3240 3242 3192 3005 3063 3164 3125 3229 3259 3472 3585 3401 3316 3154 3061 2640 2517 3303 3575 3302 2882 2555 2772 2741 2792 2124 2210 1886 2348 2678 2452 2363 2711 3485 3188 3230 2997 2527 2148 2027 2228 2142 2297
3024 3054 3035 3111 3233 3287 3226 3300 3449 3479 3355 3462 3138 2791 2731 2806 2941 3020 2977 2730 2364 2510 2760 2657 2678 2692 2734 2998 3162 3195 3068 3313 3320 3546 3641 3811 3593 3156 3308 3370 3368 3296 3367 3109 3017 3030 3070 3047 3047 3067 3301 3947 3950 3595 3312 3132 3016 3412 3918 4287 4242 3639 3602 3217 3398 3323 3458 2845 2775 2979 2674 2504 2374 2581 2524 2920 2792 2824 2613 2386 2022 1877 1736 1707 1988
3022 3002 3000 3134 3248 3306 3375 3340 3353 3402 3436 3498 3540 3320 3037 2965 2708 2862 2814 2718 2564 2781 2840 2884 2690 2618 2668 2916 3061 2878 2901 2929 3260 3133 3066 3206 3480 3194 3063 3475 3492 3337 3482 3505 2976 2879 2814 2771 2742 3093 3426 3602 3959 4196 4406 4461 4138 4253 3929 3442 4473 4150 3868 3420 3331 3164 3042 2798 2032 1687 1482 1246 980 1729 2333 2387 2645 2637 2462 2128 1777 1696 1663 1544 1493
2926 2986 3015 3110 3226 3232 3208 3145 3167 3284 3402 3467 3580 3595 3534 3279 3219 3157 3022 2886 2900 3047 3081 2801 2698 2460 2397 2409 2508 2498 2502 2562 2909 2420 2278 2248 3038 3190 3472 2651 3114 3893 3544 3653 3535 2894 2873 2811 2870 3018 3558 3557 3681 3983 5394 4551 4489 4126 4027 4398 4669 3854 2545 2578 2389 2414 2516 1966 1642 1491 1118 1354 1657 1956 2136 2030 2213 2140 2048 1819 1592 1454 1390 1236 1090
2838 2905 2955 3070 2977 2664 2564 2713 2824 3105 3192 3304 3480 3584 3621 3686 3675 3570 3184 2876 3252 2925 2732 2758 2809 2621 2328 2296 2212 2254 2358 2413 2157 1994 1881 1900 2374 2889 2963 3094 2616 2514 2533 2808 3085 3143 3020 2869 2770 2655 2809 3287 3374 4345 4311 4158 3954 3960 3783 3969 3953 3694 3038 3275 3038 2560 2696 2146 1802 1558 1401 1243 2037 2445 2099 2054 2276 2033 1860 1625 1598 1418 1274 1053 906
2928 2962 2965 3026 2913 2667 2205 2152 2371 2690 2921 3118 3262 3334 3415 3441 3479 3441 3241 3113 2841 2982 2984 2736 2744 2686 2446 2451 2367 2204 2282 2256 1982 1725 1635 1556 1495 2112 2533 2795 3243 2927 2227 2390 2339 2340 3064 3412 3049 2825 2832 4006 3327 2774 3320 4081 3421 3142 3609 4041 3482 2324 2302 1877 1708 2343 2451 2762 1678 1863 2106 2382 2609 2326 1981 1762 1704 1745 1688 1757 1763 1250 1141 882 853
2977 2818 2584 2460 2473 2440 2563 2444 2440 2452 2569 2664 2808 2944 3019 3114 3181 3183 3078 3137 2984 2823 2574 2531 2621 2775 2651 2574 2654 2330 1855 1992 1907 1629 1505 1409 1415 1384 2924 3057 3110 2953 2972 2912 2268 2298 3437 3317 3433 3299 3198 3615 4004 3678 3188 2976 3521 3545 3413 3123 3391 2939 1811 1488 1696 1848 1890 2242 2734 2608 2382 2357 2193 2073 1778 1632 1598 1612 1704 1449 1464 1054 879 618 532
2448 2311 2210 2011 1884 1858 1881 2079 1850 1907 1793 1855 1803 2202 2429 2716 2877 3056 3137 2899 2851 2911 2748 2663 2600 2557 2432 2396 2328 2212 1770 1670 1436 1341 1372 1403 1414 1459 2090 2046 2093 2476 2778 2950 3580 3440 2739 3168 3466 3231 3221 3656 3687 3494 2995 3045 3196 2724 2558 2397 2524 2866 2640 2044 2144 2410 2297 2100 2396 2210 1709 1624 1404 1382 1219 1334 1318 1240 1018 953 643 408 489 627 462
2164 2176 1688 1617 1611 1588 1634 1627 1260 1160 1267 1768 1965 1720 1948 2330 2743 2501 2440 2664 2505 2731 2887 2541 2522 2589 2496 2324 1944 1945 1486 1024 1004 1124 1198 1262 1291 1319 1545 2128 2406 2406 2443 2608 2660 2908 2817 2758 2992 2864 2779 3354 2749 1646 1795 2744 2889 2418 2477 2249 2649 2143 1170 961 905 1042 1398 1599 1604 1293 1259 1125 929 765 606 560 393 710 468 428 154 257 168 97 38
1593 1465 1345 1333 1419 1272 1124 886 996 979 1114 1340 1895 2100 1879 1440 1271 1362 1523 1726 2009 2074 2048 1820 1670 1715 1831 1750 1752 1932 770 791 837 920 1027 1106 1139 1200 1844 2053 2204 2211 2188 2338 2400 2408 2598 2834 2837 2438 2658 3084 1335 1046 986 898 2479 2372 2279 2107 2240 2096 1175 685 765 834 927 942 894 808 667 581 483 391 298 246 146 46 42 31 0 0 0 0 0
1546 1297 1240 1192 1042 792 619 829 914 884 762 941 1091 1160 938 1106 999 838 918 1078 1325 1702 1355 1131 971 920 840 707 816 764 678 707 721 758 827 914 1012 1298 1978 2228 2318 2431 2371 2716 2726 2440 2070 1808 1520 2101 2094 1246 810 755 710 721 2073 2456 2145 1884 2407 1941 1396 683 663 611 552 548 503 498 440 428 339 267 195 116 56 0 0 0 0 0 0 0 0
928 993 972 706 580 409 431 516 558 611 571 575 636 610 614 708 622 484 525 550 737 740 861 883 811 754 750 782 781 772 713 672 662 688 743 774 869 940 1207 1601 1755 1998 2145 1994 1764 1601 1504 1303 1052 967 803 852 804 748 706 742 1666 1957 2014 1939 2032 1884 1491 757 660 567 450 470 442 388 354 334 274 160 80 40 0 0 0 0 0 0 0 0 0
690 622 445 231 298 387 342 404 425 642 560 719 740 646 578 705 814 968 1108 948 555 406 716 643 788 741 699 817 897 886 856 796 698 636 601 568 606 644 723 1006 1172 1369 1645 1758 1979 1311 1002 1051 1076 1068 1127 1099 1016 981 950 914 916 893 1006 1302 1432 1933 903 692 689 483 386 398 398 282 171 69 57 30 4 0 0 0 0 0 0 0 0 0 0
618 595 446 346 342 349 357 345 383 560 730 768 802 900 964 927 955 932 957 727 764 748 662 798 896 965 938 966 997 1048 1042 1052 1001 873 795 727 691 611 561 565 581 952 1207 896 1091 945 870 865 818 807 864 944 918 963 979 1025 997 966 948 912 726 683 548 491 386 338 322 308 254 140 40 18 2 0 0 0 0 0 0 0 0 0 0 0 0
547 527 486 457 719 434 294 502 529 553 566 668 762 865 965 973 904 870 867 873 877 961 907 756 770 771 821 902 974 1002 990 962 1076 1020 1040 995 888 777 686 598 630 747 729 830 818 768 733 674 683 695 708 758 748 707 676 715 738 659 650 653 624 542 161 146 213 206 114 149 83 43 26 24 0 0 0 0 0 0 0 0 0 0 0 0 0
563 449 469 514 540 502 549 596 627 674 681 748 867 920 939 926 908 859 804 817 832 712 795 884 797 706 620 632 608 617 641 624 580 593 578 592 604 672 720 700 405 620 546 617 568 741 718 689 658 557 480 469 470 512 551 585 576 534 365 221 207 274 270 157 84 24 16 6 10 19 17 5 3 1 0 0 0 0 0 0 0 0 0 0 0
424 372 346 250 243 248 264 278 323 319 303 312 414 556 598 641 670 650 602 518 503 532 522 630 714 695 628 443 340 322 319 262 214 216 225 222 216 253 351 470 411 307 427 458 413 341 314 286 245 160 139 195 225 266 313 277 262 231 196 202 114 78 47 37 6 0 2 7 1 1 1 0 0 0 0 0 0 0 0 0 0 0 0 0 0
267 239 195 177 155 155 155 165 154 131 145 184 209 262 281 294 345 396 422 458 398 381 361 363 367 405 313 256 207 198 194 176 106 107 138 35 31 38 115 174 204 355 347 310 232 175 110 68 39 52 56 61 76 99 96 71 78 79 68 41 12 4 0 0 0 0 0 4 5 0 1 0 0 0 0 0 0 0 0 0 0 0 0 0 0
186 186 172 137 116 134 135 121 107 101 109 127 175 208 206 191 205 218 235 219 205 210 192 249 272 275 248 213 179 136 117 114 29 57 45 21 6 6 10 83 168 208 189 123 95 61 27 14 11 1 13 22 9 1 0 2 0 0 0 0 0 0 0 0 1 13 10 6 1 0 0 0 0 0 0 0 0 0 0 0 0 0 0 0 0
108 28 133 190 193 182 137 137 111 125 145 130 135 161 180 202 176 180 192 167 153 129 106 4 4 10 122 123 101 81 76 67 17 0 0 0 0 0 0 2 6 20 15 15 7 4 3 0 0 0 6 10 11 8 14 11 15 11 10 11 6 3 0 0 1 0 0 0 0 0 0 0 0 0 0 0 0 0 0 0 0 0 0 0 0
174 192 154 158 49 0 0 0 102 132 155 173 169 155 146 142 155 164 152 125 109 112 113 105 85 67 3 88 76 74 44 0 0 0 0 0 0 0 0 0 0 0 0 0 0 0 0 0 0 0 7 5 0 0 2 2 15 16 8 6 2 0 0 1 1 0 0 0 0 0 0 0 0 0 0 0 0 0 0 0 0 0 0 0 0
0 0 0 0 0 0 0 0 0 120 120 98 113 115 108 130 137 126 116 116 116 119 115 91 80 83 75 63 30 0 0 0 0 0 0 0 0 0 0 0 0 0 0 0 0 0 0 0 0 0 0 0 1 0 0 1 10 3 2 2 0 0 0 0 0 0 0 0 0 0 0 0 0 0 0 0 0 0 0 0 0 0 0 0 0
1 0 0 0 0 0 0 0 0 0 0 0 0 0 0 28 21 39 50 16 3 34 0 0 57 17 20 4 0 0 0 0 0 0 0 0 0 0 0 0 0 0 0 0 0 0 0 0 0 0 0 0 0 0 0 0 0 0 0 0 0 0 0 0 0 0 0 0 0 0 0 0 0 0 0 0 0 0 0 0 0 0 0 0 0
9 0 0 0 0 0 0 0 0 0 0 0 0 0 0 0 0 0 0 0 0 0 32 7 30 0 0 0 0 0 0 0 0 0 0 0 0 0 0 0 0 0 0 0 0 0 0 0 0 0 0 0 0 0 0 0 0 0 0 0 0 0 0 0 0 0 0 0 0 0 0 0 0 0 0 0 0 0 0 0 0 0 0 0 0
47 4 0 0 0 0 0 0 0 0 0 0 0 0 0 0 0 0 0 0 0 0 0 0 18 16 0 0 0 0 0 0 0 0 0 0 0 0 0 0 0 0 0 0 0 0 0 0 0 0 0 0 0 0 0 0 0 0 0 0 0 0 0 0 0 0 0 0 0 0 0 0 0 0 0 0 0 0 0 0 0 0 0 0 0
17 61 72 20 0 0 0 0 0 0 0 0 0 0 0 0 0 0 0 0 0 0 0 0 0 0 0 0 0 0 0 0 0 0 0 0 0 0 0 0 0 0 0 0 0 0 0 0 0 0 0 0 0 0 0 0 0 0 0 0 0 0 0 0 0 0 0 0 0 0 0 0 0 0 0 0 0 0 0 0 0 0 0 0 0
108 76 116 44 10 1 0 0 0 0 0 0 0 0 0 0 0 0 0 0 0 0 0 0 0 0 0 0 0 0 0 0 0 0 0 0 0 0 0 0 0 0 0 0 0 0 0 0 0 0 0 0 0 0 0 0 0 0 0 0 0 0 0 0 0 0 0 0 0 0 0 0 0 0 0 0 0 0 0 0 0 0 0 0 0
90 82 162 160 53 0 0 0 0 0 0 0 0 0 0 0 0 0 0 0 0 0 0 0 0 0 0 0 0 0 0 0 0 0 0 0 0 0 0 0 0 0 0 0 0 0 0 0 0 0 0 0 0 0 0 0 0 0 0 0 0 0 0 0 0 0 0 0 0 0 0 0 0 0 0 0 0 0 0 0 0 0 0 0 0
1 0 1 29 81 113 55 22 32 26 12 6 2 0 0 0 0 0 0 0 0 0 0 0 0 0 0 0 0 0 0 0 0 0 0 0 0 0 14 0 0 0 0 0 0 0 0 0 0 0 0 0 0 0 0 0 0 0 0 0 0 0 0 0 0 0 0 0 0 0 0 0 0 0 0 0 0 0 0 0 0 0 0 0 0
0 0 0 20 39 26 67 100 104 109 41 93 134 122 13 0 0 0 0 0 0 0 0 0 0 0 0 0 0 0 0 0 0 0 0 0 0 0 0 0 0 0 0 0 0 0 0 0 0 0 0 0 0 0 0 0 0 0 0 0 0 0 0 0 0 0 0 0 0 0 0 0 0 0 0 0 0 0 0 0 0 0 0 0 0
0 0 0 8 35 29 45 30 0 0 0 1 129 139 122 93 46 3 0 0 0 0 0 0 0 0 0 0 0 0 0 0 0 0 0 0 0 0 0 0 0 0 0 0 0 0 0 0 0 0 0 0 0 0 0 0 0 0 0 0 0 0 0 0 0 0 0 0 0 0 0 0 0 0 0 0 0 0 0 0 0 0 0 0 0
0 0 0 0 0 18 4 0 0 0 0 0 0 0 0 0 41 83 58 37 9 1 0 0 0 0 0 0 0 0 0 0 0 0 0 0 0 0 0 0 0 0 0 0 0 0 0 0 0 0 0 0 0 0 0 0 0 0 0 0 0 0 0 0 0 0 0 0 0 0 0 0 0 0 0 0 0 0 0 0 0 0 0 0 0
0 0 0 0 0 0 2 2 0 0 0 0 0 0 0 0 0 0 2 32 70 75 16 3 0 0 0 0 0 0 0 0 0 0 0 0 0 0 0 0 0 0 0 0 0 0 0 0 0 0 0 0 0 0 0 0 0 0 0 0 0 0 0 0 0 0 0 0 0 0 0 0 0 0 0 0 0 0 0 0 0 0 0 0 0
0 0 0 0 0 0 3 1 0 0 0 0 0 0 0 0 0 0 0 0 8 21 28 19 17 52 11 0 0 0 4 0 0 0 0 0 0 0 0 0 0 0 0 0 0 0 0 0 0 0 0 0 0 0 0 0 0 0 0 0 0 0 0 0 0 0 0 0 0 0 0 0 0 0 0 0 0 0 0 0 0 0 0 0 0
15 3 1 1 0 0 0 2 1 4 6 1 1 0 0 0 0 0 0 0 0 0 0 12 110 154 0 0 0 0 0 0 0 0 0 0 0 0 0 0 0 0 0 0 0 0 0 0 0 0 0 0 0 0 0 0 0 0 0 0 0 0 0 0 1 0 0 0 0 1 0 0 0 0 0 0 0 0 0 1 0 0 0 0 0
43 23 22 7 10 8 5 4 1 0 0 0 0 0 1 2 2 0 0 0 0 0 0 6 81 47 1 0 0 0 0 2 0 0 0 2 0 0 0 0 0 0 0 0 0 0 0 0 0 0 0 0 0 0 0 0 0 0 0 0 0 0 0 0 0 3 2 3 2 3 3 3 2 1 0 0 0 0 0 1 0 0 0 0 0
32 19 17 11 13 15 20 20 18 22 22 13 10 15 18 24 19 17 8 7 15 9 5 7 40 82 54 1 0 0 0 0 0 2 8 7 1 0 0 0 0 0 0 0 0 0 0 0 0 0 0 0 0 0 0 0 0 0 0 0 0 0 0 0 2 3 2 1 2 2 2 2 2 1 0 0 0 0 0 0 0 0 0 0 1
31 26 22 21 24 28 14 34 24 27 11 22 37 36 34 36 32 30 21 13 10 12 9 15 26 55 43 21 9 10 8 1 0 5 3 1 0 0 0 0 0 0 0 0 0 0 0 0 0 0 0 0 0 0 0 0 0 0 0 0 0 0 1 4 2 2 2 4 0 0 1 0 1 0 2 0 1 1 0 0 2 2 2 2 2
51 70 34 26 23 31 28 38 47 37 40 35 37 22 32 27 31 25 18 20 22 21 20 18 19 29 38 46 22 5 0 1 0 0 0 0 0 0 0 0 0 0 0 0 0 0 0 0 0 0 0 0 0 0 0 0 0 1 1 0 0 1 2 2 4 2 4 3 4 3 2 4 3 2 4 4 1 1 2 3 1 1 2 4 3
82 69 46 41 46 47 56 39 59 32 40 37 45 51 51 46 32 22 8 5 11 23 23 25 19 19 21 23 8 3 0 0 0 0 0 0 0 0 0 0 0 0 0 0 0 0 0 0 0 0 0 0 0 0 0 0 0 0 0 3 3 6 0 4 0 4 7 8 7 0 2 0 5 4 3 4 4 1 4 1 0 1 1 2 0
78 72 67 61 59 56 62 46 37 39 38 65 41 16 26 28 33 28 26 25 18 7 8 4 9 17 4 6 2 0 0 0 0 0 0 0 0 0 0 0 0 0 0 0 0 0 0 0 0 0 0 0 0 0 0 0 0 2 3 5 4 0 4 1 0 0 0 5 0 8 7 2 0 0 2 3 4 4 2 1 1 1 0 0 4
65 58 54 50 49 42 51 54 53 36 44 19 15 22 9 6 5 16 20 25 29 19 10 4 9 1 0 0 0 0 0 0 0 0 0 0 0 0 0 0 0 0 0 0 0 0 0 0 0 0 0 0 0 0 0 0 0 3 3 0 1 0 1 1 1 1 8 1 3 0 0 1 0 0 0 0 0 1 0 2 0 4 7 0 9
36 45 45 42 40 39 54 53 37 29 17 4 2 1 0 0 4 11 9 8 19 26 39 17 4 1 0 0 0 0 0 0 0 0 0 0 0 0 0 0 0 0 0 0 0 0 0 0 0 0 0 0 0 0 1 1 4 4 3 0 0 0 1 1 1 2 1 2 0 0 0 0 1 0 0 0 1 2 2 5 5 0 0 0 0
20 24 26 23 16 22 20 18 18 19 7 3 2 1 0 0 0 0 0 1 6 11 14 20 24 8 5 4 1 0 0 0 0 0 0 0 0 0 0 0 0 0 0 0 0 0 0 0 0 0 0 0 0 3 3 3 3 0 7 0 0 1 0 0 1 2 2 0 0 0 0 0 0 0 0 0 0 0 2 0 0 2 2 0 0
Wind_Speed
10 10 10 9 9 9 8 9 8 9 8 9 8 7 7 6 5 4 5 3 3 3 2 1 1 2 4 4 4 4 4 4 3 3 3 3 3 3 3 3 3 2 2 2 2 3 3 3 3 3 2 1 2 2 3 4 6 6 7 7 7 9 8 8 7 5 5 6 6 5 3 3 3 5 2 1 0 2 1 5 5 5 5 7 8
12 12 12 12 10 10 9 11 10 10 10 10 9 9 8 8 7 6 4 4 4 3 2 1 1 2 3 4 4 4 3 2 3 2 2 2 3 1 1 0 0 1 2 2 2 3 3 3 3 3 4 4 4 4 4 5 5 5 7 7 6 7 9 7 6 5 4 5 5 4 4 7 5 7 4 2 2 2 2 4 5 6 7 7 9
13 15 14 14 11 11 11 11 11 10 9 9 8 8 8 7 8 6 5 4 5 4 3 2 3 3 3 4 3 3 3 3 2 1 1 1 1 1 1 2 2 2 2 2 3 4 4 3 3 4 5 5 5 6 6 6 6 6 5 6 6 6 9 9 7 5 3 2 3 3 5 6 6 7 7 7 6 7 6 6 6 7 7 6 9
14 14 14 13 11 11 11 11 9 9 9 9 7 7 7 8 8 7 6 6 5 6 4 4 5 5 4 4 3 3 3 2 2 2 1 1 1 1 1 2 2 3 3 3 3 4 4 4 3 4 5 5 5 6 6 7 7 7 6 7 7 6 7 10 10 8 6 4 4 3 4 5 8 10 12 11 9 10 9 9 9 10 8 7 8
14 14 13 12 11 11 10 10 10 9 9 10 8 8 8 8 10 8 7 6 6 6 7 6 6 6 5 5 5 4 4 4 4 3 3 3 2 2 2 3 3 3 3 3 3 3 3 3 4 5 5 5 5 6 6 6 7 6 6 7 8 9 9 10 11 11 10 8 6 8 8 8 9 11 14 13 13 13 12 11 10 11 11 8 8
16 16 15 14 13 12 11 11 11 11 11 11 10 10 10 10 10 10 8 7 7 6 6 7 7 7 6 6 7 7 7 7 6 5 4 4 4 3 3 3 3 4 3 3 4 4 4 4 5 5 5 5 5 6 6 5 6 6 6 8 10 11 11 10 11 11 10 9 8 7 9 8 9 11 13 14 13 13 13 12 10 11 9 8 8
19 18 17 15 15 14 13 13 14 14 14 13 13 12 12 11 11 10 10 8 7 7 7 7 8 7 7 7 7 8 8 8 9 8 7 6 6 6 5 5 5 6 5 4 4 5 5 5 6 6 6 6 5 5 6 6 7 7 8 9 10 11 10 10 11 11 10 9 9 9 8 10 10 9 13 13 13 14 12 12 11 11 10 7 6
20 19 18 18 17 16 15 15 15 16 16 15 14 13 13 13 12 12 11 10 9 8 8 8 8 8 7 8 9 9 10 11 11 10 9 9 9 8 8 8 8 8 7 6 5 5 6 6 5 6 7 8 8 7 7 8 9 9 9 10 12 12 10 10 11 10 10 9 9 8 10 10 10 10 11 13 12 13 13 11 10 11 12 10 8
21 21 20 20 19 19 19 19 18 18 17 16 15 14 14 14 14 13 12 11 11 10 10 10 10 9 10 10 11 12 12 13 13 13 12 11 11 10 11 11 10 10 9 8 8 8 8 8 7 7 9 10 9 8 7 9 11 11 11 11 12 13 13 13 13 12 12 12 11 12 12 12 11 11 11 12 12 12 12 11 11 12 13 12 12
21 21 20 21 22 22 21 20 20 18 17 16 15 15 14 14 13 13 13 12 12 13 12 12 11 11 12 12 12 13 14 15 16 14 13 14 14 14 14 13 13 13 12 11 10 10 10 10 10 10 10 8 7 9 9 11 13 11 12 12 13 14 14 14 14 14 14 13 13 12 12 12 11 13 13 13 14 14 13 14 13 14 13 13 14
20 21 21 22 24 23 23 22 21 20 19 19 18 17 16 16 16 15 15 15 14 15 14 13 13 13 13 13 13 14 15 16 17 17 15 13 14 16 16 15 14 15 15 15 13 12 12 12 12 13 14 12 11 10 15 21 18 16 14 12 13 15 15 15 15 16 16 15 15 15 14 14 15 16 15 15 16 16 15 15 15 15 15 14 13
20 20 21 24 24 22 22 21 21 22 22 22 22 21 20 20 19 18 17 17 18 16 15 15 15 15 15 15 14 14 15 17 18 18 17 17 17 16 15 15 16 15 15 14 15 15 15 14 15 16 16 16 15 18 19 20 21 20 20 20 19 17 17 18 19 18 19 17 17 16 16 16 18 19 18 19 18 17 16 16 17 18 16 15 16
23 22 23 25 27 26 24 23 22 22 23 24 25 24 23 23 22 21 20 20 20 19 18 18 17 17 16 15 15 14 15 18 19 18 18 17 16 16 15 15 16 17 16 16 16 17 18 18 17 18 19 24 20 18 19 20 23 22 22 25 28 27 25 24 22 20 20 19 17 17 19 20 19 20 22 22 20 17 17 19 20 19 19 17 18
25 24 23 24 26 27 27 26 25 25 25 25 25 25 25 25 24 25 24 24 23 22 21 20 21 20 19 17 16 17 16 30 27 22 19 19 20 21 18 18 18 18 18 18 19 18 20 19 20 20 20 21 22 21 20 19 20 22 22 22 24 30 30 30 29 27 23 21 21 19 22 23 21 23 23 23 21 21 22 21 22 21 21 18 17
27 26 26 28 30 31 32 31 31 30 28 27 26 24 24 26 26 28 28 26 25 25 25 25 24 23 21 21 21 20 28 36 34 32 31 28 28 23 20 19 20 21 21 20 21 20 20 20 20 20 20 21 22 23 21 21 22 22 22 22 24 25 26 25 26 26 25 24 23 24 25 26 26 26 28 27 27 28 27 25 24 23 21 19 19
31 31 30 31 32 32 33 33 32 29 28 29 29 27 27 29 31 33 31 29 28 29 29 27 26 26 26 27 26 24 34 38 35 33 33 31 29 25 23 23 22 23 23 24 23 23 23 22 21 20 21 22 33 33 28 25 23 22 22 23 25 27 29 30 28 28 28 28 26 28 31 32 33 33 32 31 32 31 29 27 26 25 24 nan nan
34 33 33 30 31 33 32 33 34 32 30 27 27 30 32 34 34 34 31 28 28 29 30 31 32 32 31 30 29 31 35 37 36 35 34 32 28 27 26 26 26 25 26 26 26 25 26 26 25 23 24 27 34 33 30 26 24 23 22 22 24 26 29 32 34 37 38 40 41 40 39 39 39 39 39 36 31 nan nan nan nan nan nan nan nan
36 37 35 35 37 37 32 31 33 33 32 29 28 29 31 32 33 35 32 27 25 31 34 34 35 35 35 35 33 32 35 37 36 35 34 34 30 28 29 28 27 28 28 30 32 31 28 30 28 29 29 33 36 31 29 28 26 26 25 24 26 27 28 32 35 36 39 40 38 38 38 39 40 41 39 37 nan nan nan nan nan nan nan nan nan
41 40 39 38 39 37 33 32 33 33 32 33 33 30 29 30 33 35 33 30 28 31 33 36 35 36 37 37 40 37 35 37 38 35 34 34 32 32 31 29 27 27 29 29 33 33 38 41 44 41 38 38 37 35 33 28 27 27 27 25 26 26 30 36 39 39 38 38 37 36 36 34 35 36 nan nan nan nan nan nan nan nan nan nan nan
41 42 42 39 39 39 37 37 37 38 36 36 36 35 34 32 32 35 34 30 29 32 34 36 38 39 40 41 40 40 39 37 38 36 34 35 33 32 32 30 30 30 31 32 34 37 39 39 41 43 41 40 38 38 37 34 31 28 27 27 26 30 36 35 40 42 41 40 40 40 34 nan nan nan nan nan nan nan nan nan nan nan nan nan nan
44 44 43 42 45 43 40 41 43 43 41 39 40 41 39 37 37 37 35 35 36 35 35 38 42 44 44 45 45 45 42 39 39 41 41 38 38 37 37 35 34 34 37 40 39 39 39 40 40 43 43 43 41 38 36 38 34 32 32 33 36 39 39 41 46 50 47 44 42 38 nan nan nan nan nan nan nan nan nan nan nan nan nan nan nan
49 49 50 53 55 52 50 50 48 45 43 42 40 41 41 39 38 39 40 39 39 40 40 43 45 47 47 48 46 45 46 46 40 44 45 43 41 43 43 41 37 37 41 43 42 42 41 41 43 44 45 45 43 42 40 41 43 39 41 42 46 47 45 45 44 42 42 42 nan nan nan nan nan nan nan nan nan nan nan nan nan nan nan nan nan
44 46 48 52 56 56 55 55 52 50 49 45 41 41 42 40 40 43 43 44 45 44 45 47 48 49 48 46 46 48 45 43 44 40 40 39 39 41 44 45 46 47 46 46 46 46 45 44 45 48 47 46 45 43 44 42 43 40 43 46 51 52 47 44 nan nan nan nan nan nan nan nan nan nan nan nan nan nan nan nan nan nan nan nan nan
24 27 35 40 44 49 55 59 58 56 54 49 42 38 38 40 42 45 46 45 44 43 43 44 45 46 46 46 46 45 44 42 40 37 31 33 35 37 36 41 45 48 49 47 47 47 45 45 45 47 49 47 45 44 47 48 46 43 43 47 52 nan nan nan nan nan nan nan nan nan nan nan nan nan nan nan nan nan nan nan nan nan nan nan nan
18 17 20 23 25 28 37 48 54 55 53 47 42 39 41 43 44 43 43 41 37 35 35 35 36 37 40 43 45 46 43 38 33 32 33 nan nan nan 31 34 41 46 48 49 49 48 47 nan nan nan nan nan nan nan nan nan nan nan nan nan nan nan nan nan nan nan nan nan nan nan nan nan nan nan nan nan nan nan nan nan nan nan nan nan nan
21 20 20 20 19 18 20 26 34 40 42 39 38 36 37 36 36 35 34 32 30 28 28 29 28 30 33 35 39 40 37 33 nan nan nan nan nan nan nan nan 33 34 37 38 nan nan nan nan nan nan nan nan nan nan nan nan nan nan nan nan nan nan nan nan nan nan nan nan nan nan nan nan nan nan nan nan nan nan nan nan nan nan nan nan nan
27 nan 22 24 23 21 21 19 22 26 29 28 27 28 28 28 28 29 28 29 29 28 28 nan nan nan 33 33 33 nan nan nan nan nan nan nan nan nan nan nan nan nan nan nan nan nan nan nan nan nan nan nan nan nan nan nan nan nan nan nan nan nan nan nan nan nan nan nan nan nan nan nan nan nan nan nan nan nan nan nan nan nan nan nan nan
25 24 25 25 nan nan nan nan 28 26 27 28 28 26 27 27 28 27 26 26 28 30 28 28 nan nan nan nan nan nan nan nan nan nan nan nan nan nan nan nan nan nan nan nan nan nan nan nan nan nan nan nan nan nan nan nan nan nan nan nan nan nan nan nan nan nan nan nan nan nan nan nan nan nan nan nan nan nan nan nan nan nan nan nan nan
nan nan nan nan nan nan nan nan nan 28 28 nan 29 28 24 24 26 28 28 26 23 25 27 nan nan nan nan nan nan nan nan nan nan nan nan nan nan nan nan nan nan nan nan nan nan nan nan nan nan nan nan nan nan nan nan nan nan nan nan nan nan nan nan nan nan nan nan nan nan nan nan nan nan nan nan nan nan nan nan nan nan nan nan nan nan
nan nan nan nan nan nan nan nan nan nan nan nan nan nan nan nan nan nan nan nan nan nan nan nan nan nan nan nan nan nan nan nan nan nan nan nan nan nan nan nan nan nan nan nan nan nan nan nan nan nan nan nan nan nan nan nan nan nan nan nan nan nan nan nan nan nan nan nan nan nan nan nan nan nan nan nan nan nan nan nan nan nan nan nan nan
nan nan nan nan nan nan nan nan nan nan nan nan nan nan nan nan nan nan nan nan nan nan nan nan nan nan nan nan nan nan nan nan nan nan nan nan nan nan nan nan nan nan nan nan nan nan nan nan nan nan nan nan nan nan nan nan nan nan nan nan nan nan nan nan nan nan nan nan nan nan nan nan nan nan nan nan nan nan nan nan nan nan nan nan nan
nan nan nan nan nan nan nan nan nan nan nan nan nan nan nan nan nan nan nan nan nan nan nan nan nan nan nan nan nan nan nan nan nan nan nan nan nan nan nan nan nan nan nan nan nan nan nan nan nan nan nan nan nan nan nan nan nan nan nan nan nan nan nan nan nan nan nan nan nan nan nan nan nan nan nan nan nan nan nan nan nan nan nan nan nan
nan nan nan nan nan nan nan nan nan nan nan nan nan nan nan nan nan nan nan nan nan nan nan nan nan nan nan nan nan nan nan nan nan nan nan nan nan nan nan nan nan nan nan nan nan nan nan nan nan nan nan nan nan nan nan nan nan nan nan nan nan nan nan nan nan nan nan nan nan nan nan nan nan nan nan nan nan nan nan nan nan nan nan nan nan
33 nan 34 nan nan nan nan nan nan nan nan nan nan nan nan nan nan nan nan nan nan nan nan nan nan nan nan nan nan nan nan nan nan nan nan nan nan nan nan nan nan nan nan nan nan nan nan nan nan nan nan nan nan nan nan nan nan nan nan nan nan nan nan nan nan nan nan nan nan nan nan nan nan nan nan nan nan nan nan nan nan nan nan nan nan
nan nan 39 37 nan nan nan nan nan nan nan nan nan nan nan nan nan nan nan nan nan nan nan nan nan nan nan nan nan nan nan nan nan nan nan nan nan nan nan nan nan nan nan nan nan nan nan nan nan nan nan nan nan nan nan nan nan nan nan nan nan nan nan nan nan nan nan nan nan nan nan nan nan nan nan nan nan nan nan nan nan nan nan nan nan
nan nan nan nan nan 38 nan nan nan nan nan nan nan nan nan nan nan nan nan nan nan nan nan nan nan nan nan nan nan nan nan nan nan nan nan nan nan nan nan nan nan nan nan nan nan nan nan nan nan nan nan nan nan nan nan nan nan nan nan nan nan nan nan nan nan nan nan nan nan nan nan nan nan nan nan nan nan nan nan nan nan nan nan nan nan
nan nan nan nan nan nan nan nan 40 41 nan nan 42 43 nan nan nan nan nan nan nan nan nan nan nan nan nan nan nan nan nan nan nan nan nan nan nan nan nan nan nan nan nan nan nan nan nan nan nan nan nan nan nan nan nan nan nan nan nan nan nan nan nan nan nan nan nan nan nan nan nan nan nan nan nan nan nan nan nan nan nan nan nan nan nan
nan nan nan nan nan nan nan nan nan nan nan nan 42 42 43 nan nan nan nan nan nan nan nan nan nan nan nan nan nan nan nan nan nan nan nan nan nan nan nan nan nan nan nan nan nan nan nan nan nan nan nan nan nan nan nan nan nan nan nan nan nan nan nan nan nan nan nan nan nan nan nan nan nan nan nan nan nan nan nan nan nan nan nan nan nan
nan nan nan nan nan nan nan nan nan nan nan nan nan nan nan nan nan nan nan nan nan nan nan nan nan nan nan nan nan nan nan nan nan nan nan nan nan nan nan nan nan nan nan nan nan nan nan nan nan nan nan nan nan nan nan nan nan nan nan nan nan nan nan nan nan nan nan nan nan nan nan nan nan nan nan nan nan nan nan nan nan nan nan nan nan
nan nan nan nan nan nan nan nan nan nan nan nan nan nan nan nan nan nan nan nan nan nan nan nan nan nan nan nan nan nan nan nan nan nan nan nan nan nan nan nan nan nan nan nan nan nan nan nan nan nan nan nan nan nan nan nan nan nan nan nan nan nan nan nan nan nan nan nan nan nan nan nan nan nan nan nan nan nan nan nan nan nan nan nan nan
nan nan nan nan nan nan nan nan nan nan nan nan nan nan nan nan nan nan nan nan nan nan nan nan nan nan nan nan nan nan nan nan nan nan nan nan nan nan nan nan nan nan nan nan nan nan nan nan nan nan nan nan nan nan nan nan nan nan nan nan nan nan nan nan nan nan nan nan nan nan nan nan nan nan nan nan nan nan nan nan nan nan nan nan nan
nan nan nan nan nan nan nan nan nan nan nan nan nan nan nan nan nan nan nan nan nan nan nan nan 50 51 nan nan nan nan nan nan nan nan nan nan nan nan nan nan nan nan nan nan nan nan nan nan nan nan nan nan nan nan nan nan nan nan nan nan nan nan nan nan nan nan nan nan nan nan nan nan nan nan nan nan nan nan nan nan nan nan nan nan nan
nan nan nan nan nan nan nan nan nan nan nan nan nan nan nan nan nan nan nan nan nan nan nan nan nan nan nan nan nan nan nan nan nan nan nan nan nan nan nan nan nan nan nan nan nan nan nan nan nan nan nan nan nan nan nan nan nan nan nan nan nan nan nan nan nan nan nan nan nan nan nan nan nan nan nan nan nan nan nan nan nan nan nan nan nan
nan nan nan nan nan nan nan nan nan nan nan nan nan nan nan nan nan nan nan nan nan nan nan nan nan nan nan nan nan nan nan nan nan nan nan nan nan nan nan nan nan nan nan nan nan nan nan nan nan nan nan nan nan nan nan nan nan nan nan nan nan nan nan nan nan nan nan nan nan nan nan nan nan nan nan nan nan nan nan nan nan nan nan nan nan
nan nan nan nan nan nan nan nan nan nan nan nan nan nan nan nan nan nan nan nan nan nan nan nan nan nan nan nan nan nan nan nan nan nan nan nan nan nan nan nan nan nan nan nan nan nan nan nan nan nan nan nan nan nan nan nan nan nan nan nan nan nan nan nan nan nan nan nan nan nan nan nan nan nan nan nan nan nan nan nan nan nan nan nan nan
nan nan nan nan nan nan nan nan nan nan nan nan nan nan nan nan nan nan nan nan nan nan nan nan nan nan nan nan nan nan nan nan nan nan nan nan nan nan nan nan nan nan nan nan nan nan nan nan nan nan nan nan nan nan nan nan nan nan nan nan nan nan nan nan nan nan nan nan nan nan nan nan nan nan nan nan nan nan nan nan nan nan nan nan nan
nan nan nan nan nan nan nan nan nan nan nan nan nan nan nan nan nan nan nan nan nan nan nan nan nan nan nan nan nan nan nan nan nan nan nan nan nan nan nan nan nan nan nan nan nan nan nan nan nan nan nan nan nan nan nan nan nan nan nan nan nan nan nan nan nan nan nan nan nan nan nan nan nan nan nan nan nan nan nan nan nan nan nan nan nan
nan nan nan nan nan nan nan nan nan nan nan nan nan nan nan nan nan nan nan nan nan nan nan nan nan nan nan nan nan nan nan nan nan nan nan nan nan nan nan nan nan nan nan nan nan nan nan nan nan nan nan nan nan nan nan nan nan nan nan nan nan nan nan nan nan nan nan nan nan nan nan nan nan nan nan nan nan nan nan nan nan nan nan nan nan
nan nan nan nan nan nan nan nan nan nan nan nan nan nan nan nan nan nan nan nan nan nan nan nan nan nan nan nan nan nan nan nan nan nan nan nan nan nan nan nan nan nan nan nan nan nan nan nan nan nan nan nan nan nan nan nan nan nan nan nan nan nan nan nan nan nan nan nan nan nan nan nan nan nan nan nan nan nan nan nan nan nan nan nan nan
nan nan nan nan nan nan nan nan nan nan nan nan nan nan nan nan nan nan nan nan nan nan nan nan nan nan nan nan nan nan nan nan nan nan nan nan nan nan nan nan nan nan nan nan nan nan nan nan nan nan nan nan nan nan nan nan nan nan nan nan nan nan nan nan nan nan nan nan nan nan nan nan nan nan nan nan nan nan nan nan nan nan nan nan nan
nan nan nan nan nan nan nan nan nan nan nan nan nan nan nan nan nan nan nan nan nan nan nan nan nan nan nan nan nan nan nan nan nan nan nan nan nan nan nan nan nan nan nan nan nan nan nan nan nan nan nan nan nan nan nan nan nan nan nan nan nan nan nan nan nan nan nan nan nan nan nan nan nan nan nan nan nan nan nan nan nan nan nan nan nan
Wind_Direction
215 217 224 231 240 247 247 248 255 255 263 268 267 267 266 271 276 273 267 283 288 306 314 309 150 134 130 135 127 133 133 130 132 130 118 105 101 106 122 137 149 169 208 190 215 238 238 226 225 237 262 288 312 334 354 354 353 355 352 359 2 351 355 5 21 29 22 9 27 42 26 17 356 347 36 69 324 262 347 319 328 316 312 308 305
211 215 220 227 240 245 250 251 253 254 263 268 272 269 267 267 266 263 263 270 278 286 294 271 235 173 150 139 137 134 134 135 117 116 109 94 85 88 44 38 197 219 223 225 238 243 249 242 233 250 287 307 308 329 334 338 345 345 341 342 344 339 334 349 357 6 34 15 22 14 15 346 351 330 330 354 303 316 285 296 306 307 302 306 306
213 215 217 221 228 234 243 249 253 259 262 262 268 269 267 264 259 259 258 257 272 269 261 251 242 225 187 173 169 154 152 142 157 152 137 97 88 104 228 262 267 265 271 272 265 263 264 265 263 270 285 298 305 314 316 326 327 331 337 330 334 333 323 330 334 344 4 6 356 16 335 325 324 313 315 320 328 322 320 298 295 296 295 296 303
220 221 220 218 221 224 231 236 246 252 254 251 255 257 253 254 258 260 264 259 261 266 255 236 236 238 217 209 204 195 197 197 197 222 265 279 275 301 292 284 271 278 280 271 275 281 280 278 282 274 272 285 294 300 312 317 321 325 329 324 324 327 320 321 327 327 324 330 328 328 305 304 307 306 307 309 305 296 295 293 298 297 294 297 302
229 229 228 226 225 224 226 230 234 239 239 237 244 249 250 250 256 262 263 260 259 253 255 245 234 236 230 232 232 231 226 228 237 226 241 256 266 259 265 275 282 283 281 278 276 285 288 297 296 295 291 290 296 307 308 312 306 305 312 310 312 314 314 317 319 320 320 324 318 315 309 309 303 297 298 294 296 300 299 294 288 291 292 294 294
235 236 236 236 235 237 234 235 237 238 236 234 237 243 247 251 255 258 258 256 257 257 252 248 244 241 239 235 236 239 241 243 246 242 239 249 257 255 259 269 277 280 285 291 293 292 294 296 300 302 301 297 293 294 295 295 299 306 307 305 304 307 315 319 319 319 322 321 317 312 311 300 295 294 294 293 292 293 297 298 298 293 287 281 280
240 240 243 242 241 243 244 244 242 241 241 237 237 241 246 248 248 248 252 249 248 247 250 251 251 246 245 240 235 241 246 249 252 254 251 251 255 258 255 263 269 271 275 278 280 286 291 296 298 302 303 300 298 297 294 296 295 299 304 301 298 301 305 310 313 319 322 322 318 317 309 305 302 296 297 292 299 299 290 289 293 292 290 280 274
242 241 242 241 240 243 243 245 247 248 246 247 246 247 247 245 243 241 241 243 239 236 233 238 245 247 245 243 242 244 248 249 254 255 256 258 263 267 268 267 268 273 274 273 273 275 279 284 289 291 295 296 297 292 293 291 289 289 290 292 291 295 294 296 301 306 311 314 313 306 303 298 305 306 304 304 298 298 291 287 284 283 287 292 289
245 244 243 242 240 238 239 241 245 250 253 254 254 253 250 247 245 242 241 237 235 235 233 230 232 234 238 240 240 243 244 248 251 256 259 264 264 265 270 271 273 273 272 273 275 277 278 279 284 283 279 289 297 301 295 287 284 285 282 282 289 292 293 293 297 299 302 304 306 308 308 306 307 306 296 291 286 283 285 279 276 278 283 289 293
245 246 246 245 243 242 242 242 245 248 252 255 255 255 253 250 247 245 242 241 239 238 235 233 233 234 235 239 241 241 244 247 258 268 265 257 261 263 268 273 274 273 272 272 274 279 283 281 277 273 281 292 300 307 318 321 319 303 288 289 289 291 290 291 293 295 295 297 301 300 300 300 293 291 291 289 289 288 281 275 276 276 281 286 296
247 249 250 248 247 247 246 244 245 248 250 251 252 252 251 248 248 246 244 242 239 240 238 234 235 235 236 237 240 243 245 249 268 278 280 274 259 258 259 262 272 278 281 280 276 272 273 276 274 281 286 288 292 302 296 294 297 306 305 300 292 287 285 287 288 289 292 294 294 296 296 294 292 288 291 288 285 280 279 279 279 279 281 280 282
244 248 250 250 250 249 247 247 247 247 248 249 249 249 249 248 247 246 244 242 243 239 237 236 236 235 236 238 241 244 246 257 274 279 279 281 280 271 266 266 265 267 264 267 270 273 269 266 270 271 274 277 275 286 292 296 295 296 292 292 293 296 282 280 281 284 287 287 287 287 287 289 290 291 287 284 282 281 280 280 280 280 277 277 279
243 243 245 248 249 248 246 246 246 247 248 250 250 251 251 250 249 248 248 245 242 244 244 241 240 241 240 241 242 247 254 269 283 282 283 282 283 278 272 271 270 272 274 273 270 264 265 268 266 266 267 284 286 285 285 290 292 289 289 287 279 277 279 278 276 277 278 283 282 281 283 281 286 285 281 281 284 283 279 279 279 277 276 276 279
243 242 243 245 247 247 247 246 244 243 244 247 249 253 255 254 251 249 247 249 250 250 248 249 250 251 251 251 251 248 246 248 254 260 262 263 267 272 270 274 276 273 273 275 272 272 269 268 268 269 271 280 282 283 284 285 284 285 285 284 281 281 283 284 285 284 283 282 281 283 281 280 280 278 280 283 283 280 279 278 275 273 274 277 283
246 248 250 250 251 251 252 249 245 241 243 244 245 247 251 253 253 249 248 248 251 254 257 258 258 258 258 259 255 254 257 252 256 257 258 260 264 269 270 266 266 270 272 272 272 269 267 266 267 270 273 278 279 279 280 280 280 280 279 280 280 280 279 280 281 283 286 285 285 282 281 280 280 281 284 286 284 284 283 282 279 279 282 285 287
247 249 253 252 253 253 253 254 255 252 248 249 251 248 246 246 246 248 248 247 245 246 249 254 258 260 262 260 261 257 258 251 254 257 262 267 273 273 273 273 269 266 266 267 268 267 265 265 267 267 267 271 267 261 260 265 275 279 279 279 281 282 278 274 275 276 278 282 284 282 282 279 278 280 282 287 290 290 289 288 286 284 279 nan nan
245 247 247 249 249 247 248 252 251 248 250 252 255 258 257 253 251 249 246 249 253 254 252 251 249 249 250 254 257 260 259 252 252 255 258 261 269 270 271 270 271 270 269 268 268 267 266 265 267 267 268 270 266 267 267 267 273 275 276 277 279 283 283 281 277 278 278 278 279 282 284 283 281 279 276 274 278 nan nan nan nan nan nan nan nan
243 243 239 240 242 243 244 251 256 253 253 257 257 252 252 254 255 255 253 247 248 254 255 253 252 254 255 253 251 257 258 252 249 253 257 258 259 263 266 268 268 269 269 269 268 266 263 263 262 265 266 264 261 264 268 274 277 280 281 283 284 285 289 290 287 284 285 285 285 286 286 287 286 280 275 273 nan nan nan nan nan nan nan nan nan
239 242 244 241 242 244 246 245 246 248 251 255 254 253 252 251 250 248 251 249 248 253 257 259 258 254 252 253 252 252 252 250 245 244 251 255 261 265 263 263 264 265 266 267 267 266 266 260 255 254 258 261 260 260 258 264 276 278 280 283 286 291 294 298 291 291 290 288 285 284 282 283 284 283 nan nan nan nan nan nan nan nan nan nan nan
244 245 248 249 246 244 245 247 248 248 247 250 253 253 251 249 252 254 255 256 254 254 259 261 259 257 255 254 254 254 254 252 246 242 247 254 257 265 266 266 266 265 266 265 267 270 266 264 261 259 260 260 260 260 261 258 268 278 282 287 289 289 280 291 292 287 282 278 276 275 275 nan nan nan nan nan nan nan nan nan nan nan nan nan nan
246 248 250 251 252 248 245 245 245 245 247 247 248 251 253 254 253 255 257 257 257 258 261 261 261 260 259 257 256 253 253 254 252 247 246 247 253 262 268 265 266 266 267 265 264 264 264 263 264 260 258 257 254 252 255 259 260 271 274 276 272 278 284 282 281 283 282 280 278 276 nan nan nan nan nan nan nan nan nan nan nan nan nan nan nan
248 250 250 248 249 246 241 239 241 244 245 246 249 251 250 249 252 255 257 258 258 261 264 264 263 262 261 260 258 257 255 256 260 255 253 250 247 251 262 261 262 267 264 264 265 264 263 262 263 259 258 257 256 255 254 254 256 263 266 266 264 266 271 272 274 275 277 276 nan nan nan nan nan nan nan nan nan nan nan nan nan nan nan nan nan
247 246 247 248 249 247 243 241 241 242 245 248 249 248 247 248 254 258 258 258 259 262 265 266 265 263 262 261 261 260 260 260 259 263 261 259 255 250 253 256 255 260 263 262 261 263 262 261 261 257 258 257 255 256 260 259 262 264 266 268 271 273 274 274 nan nan nan nan nan nan nan nan nan nan nan nan nan nan nan nan nan nan nan nan nan
255 254 253 252 252 251 247 243 242 243 243 246 248 247 246 248 252 256 256 255 259 262 264 265 264 264 264 263 259 258 259 259 256 256 259 259 264 265 260 251 247 253 259 263 264 264 264 263 264 263 262 262 260 258 263 264 268 265 265 272 275 nan nan nan nan nan nan nan nan nan nan nan nan nan nan nan nan nan nan nan nan nan nan nan nan
263 266 261 258 259 256 248 243 240 240 241 247 253 251 247 248 251 250 250 251 253 255 257 259 262 263 263 260 257 255 254 253 254 259 261 nan nan nan 265 264 254 249 256 260 264 265 265 nan nan nan nan nan nan nan nan nan nan nan nan nan nan nan nan nan nan nan nan nan nan nan nan nan nan nan nan nan nan nan nan nan nan nan nan nan nan
275 277 275 271 275 278 267 250 240 236 238 241 244 242 241 242 243 242 243 248 252 252 255 260 263 263 262 258 254 253 253 254 nan nan nan nan nan nan nan nan 263 259 260 262 nan nan nan nan nan nan nan nan nan nan nan nan nan nan nan nan nan nan nan nan nan nan nan nan nan nan nan nan nan nan nan nan nan nan nan nan nan nan nan nan nan
284 nan 278 281 278 277 276 270 259 252 249 249 247 248 249 250 254 258 261 265 266 268 267 nan nan nan 268 268 264 nan nan nan nan nan nan nan nan nan nan nan nan nan nan nan nan nan nan nan nan nan nan nan nan nan nan nan nan nan nan nan nan nan nan nan nan nan nan nan nan nan nan nan nan nan nan nan nan nan nan nan nan nan nan nan nan
278 277 274 275 nan nan nan nan 271 272 269 268 267 267 268 270 271 270 269 270 276 278 276 275 nan nan nan nan nan nan nan nan nan nan nan nan nan nan nan nan nan nan nan nan nan nan nan nan nan nan nan nan nan nan nan nan nan nan nan nan nan nan nan nan nan nan nan nan nan nan nan nan nan nan nan nan nan nan nan nan nan nan nan nan nan
nan nan nan nan nan nan nan nan nan 277 278 nan 275 274 275 276 276 278 273 273 271 270 272 nan nan nan nan nan nan nan nan nan nan nan nan nan nan nan nan nan nan nan nan nan nan nan nan nan nan nan nan nan nan nan nan nan nan nan nan nan nan nan nan nan nan nan nan nan nan nan nan nan nan nan nan nan nan nan nan nan nan nan nan nan nan
nan nan nan nan nan nan nan nan nan nan nan nan nan nan nan nan nan nan nan nan nan nan nan nan nan nan nan nan nan nan nan nan nan nan nan nan nan nan nan nan nan nan nan nan nan nan nan nan nan nan nan nan nan nan nan nan nan nan nan nan nan nan nan nan nan nan nan nan nan nan nan nan nan nan nan nan nan nan nan nan nan nan nan nan nan
nan nan nan nan nan nan nan nan nan nan nan nan nan nan nan nan nan nan nan nan nan nan nan nan nan nan nan nan nan nan nan nan nan nan nan nan nan nan nan nan nan nan nan nan nan nan nan nan nan nan nan nan nan nan nan nan nan nan nan nan nan nan nan nan nan nan nan nan nan nan nan nan nan nan nan nan nan nan nan nan nan nan nan nan nan
nan nan nan nan nan nan nan nan nan nan nan nan nan nan nan nan nan nan nan nan nan nan nan nan nan nan nan nan nan nan nan nan nan nan nan nan nan nan nan nan nan nan nan nan nan nan nan nan nan nan nan nan nan nan nan nan nan nan nan nan nan nan nan nan nan nan nan nan nan nan nan nan nan nan nan nan nan nan nan nan nan nan nan nan nan
nan nan nan nan nan nan nan nan nan nan nan nan nan nan nan nan nan nan nan nan nan nan nan nan nan nan nan nan nan nan nan nan nan nan nan nan nan nan nan nan nan nan nan nan nan nan nan nan nan nan nan nan nan nan nan nan nan nan nan nan nan nan nan nan nan nan nan nan nan nan nan nan nan nan nan nan nan nan nan nan nan nan nan nan nan
266 nan 269 nan nan nan nan nan nan nan nan nan nan nan nan nan nan nan nan nan nan nan nan nan nan nan nan nan nan nan nan nan nan nan nan nan nan nan nan nan nan nan nan nan nan nan nan nan nan nan nan nan nan nan nan nan nan nan nan nan nan nan nan nan nan nan nan nan nan nan nan nan nan nan nan nan nan nan nan nan nan nan nan nan nan
nan nan 269 271 nan nan nan nan nan nan nan nan nan nan nan nan nan nan nan nan nan nan nan nan nan nan nan nan nan nan nan nan nan nan nan nan nan nan nan nan nan nan nan nan nan nan nan nan nan nan nan nan nan nan nan nan nan nan nan nan nan nan nan nan nan nan nan nan nan nan nan nan nan nan nan nan nan nan nan nan nan nan nan nan nan
nan nan nan nan nan 275 nan nan nan nan nan nan nan nan nan nan nan nan nan nan nan nan nan nan nan nan nan nan nan nan nan nan nan nan nan nan nan nan nan nan nan nan nan nan nan nan nan nan nan nan nan nan nan nan nan nan nan nan nan nan nan nan nan nan nan nan nan nan nan nan nan nan nan nan nan nan nan nan nan nan nan nan nan nan nan
nan nan nan nan nan nan nan nan 277 277 nan nan 276 275 nan nan nan nan nan nan nan nan nan nan nan nan nan nan nan nan nan nan nan nan nan nan nan nan nan nan nan nan nan nan nan nan nan nan nan nan nan nan nan nan nan nan nan nan nan nan nan nan nan nan nan nan nan nan nan nan nan nan nan nan nan nan nan nan nan nan nan nan nan nan nan
nan nan nan nan nan nan nan nan nan nan nan nan 280 279 279 nan nan nan nan nan nan nan nan nan nan nan nan nan nan nan nan nan nan nan nan nan nan nan nan nan nan nan nan nan nan nan nan nan nan nan nan nan nan nan nan nan nan nan nan nan nan nan nan nan nan nan nan nan nan nan nan nan nan nan nan nan nan nan nan nan nan nan nan nan nan
nan nan nan nan nan nan nan nan nan nan nan nan nan nan nan nan nan nan nan nan nan nan nan nan nan nan nan nan nan nan nan nan nan nan nan nan nan nan nan nan nan nan nan nan nan nan nan nan nan nan nan nan nan nan nan nan nan nan nan nan nan nan nan nan nan nan nan nan nan nan nan nan nan nan nan nan nan nan nan nan nan nan nan nan nan
nan nan nan nan nan nan nan nan nan nan nan nan nan nan nan nan nan nan nan nan nan nan nan nan nan nan nan nan nan nan nan nan nan nan nan nan nan nan nan nan nan nan nan nan nan nan nan nan nan nan nan nan nan nan nan nan nan nan nan nan nan nan nan nan nan nan nan nan nan nan nan nan nan nan nan nan nan nan nan nan nan nan nan nan nan
nan nan nan nan nan nan nan nan nan nan nan nan nan nan nan nan nan nan nan nan nan nan nan nan nan nan nan nan nan nan nan nan nan nan nan nan nan nan nan nan nan nan nan nan nan nan nan nan nan nan nan nan nan nan nan nan nan nan nan nan nan nan nan nan nan nan nan nan nan nan nan nan nan nan nan nan nan nan nan nan nan nan nan nan nan
nan nan nan nan nan nan nan nan nan nan nan nan nan nan nan nan nan nan nan nan nan nan nan nan 278 277 nan nan nan nan nan nan nan nan nan nan nan nan nan nan nan nan nan nan nan nan nan nan nan nan nan nan nan nan nan nan nan nan nan nan nan nan nan nan nan nan nan nan nan nan nan nan nan nan nan nan nan nan nan nan nan nan nan nan nan
nan nan nan nan nan nan nan nan nan nan nan nan nan nan nan nan nan nan nan nan nan nan nan nan nan nan nan nan nan nan nan nan nan nan nan nan nan nan nan nan nan nan nan nan nan nan nan nan nan nan nan nan nan nan nan nan nan nan nan nan nan nan nan nan nan nan nan nan nan nan nan nan nan nan nan nan nan nan nan nan nan nan nan nan nan
nan nan nan nan nan nan nan nan nan nan nan nan nan nan nan nan nan nan nan nan nan nan nan nan nan nan nan nan nan nan nan nan nan nan nan nan nan nan nan nan nan nan nan nan nan nan nan nan nan nan nan nan nan nan nan nan nan nan nan nan nan nan nan nan nan nan nan nan nan nan nan nan nan nan nan nan nan nan nan nan nan nan nan nan nan
nan nan nan nan nan nan nan nan nan nan nan nan nan nan nan nan nan nan nan nan nan nan nan nan nan nan nan nan nan nan nan nan nan nan nan nan nan nan nan nan nan nan nan nan nan nan nan nan nan nan nan nan nan nan nan nan nan nan nan nan nan nan nan nan nan nan nan nan nan nan nan nan nan nan nan nan nan nan nan nan nan nan nan nan nan
nan nan nan nan nan nan nan nan nan nan nan nan nan nan nan nan nan nan nan nan nan nan nan nan nan nan nan nan nan nan nan nan nan nan nan nan nan nan nan nan nan nan nan nan nan nan nan nan nan nan nan nan nan nan nan nan nan nan nan nan nan nan nan nan nan nan nan nan nan nan nan nan nan nan nan nan nan nan nan nan nan nan nan nan nan
nan nan nan nan nan nan nan nan nan nan nan nan nan nan nan nan nan nan nan nan nan nan nan nan nan nan nan nan nan nan nan nan nan nan nan nan nan nan nan nan nan nan nan nan nan nan nan nan nan nan nan nan nan nan nan nan nan nan nan nan nan nan nan nan nan nan nan nan nan nan nan nan nan nan nan nan nan nan nan nan nan nan nan nan nan
nan nan nan nan nan nan nan nan nan nan nan nan nan nan nan nan nan nan nan nan nan nan nan nan nan nan nan nan nan nan nan nan nan nan nan nan nan nan nan nan nan nan nan nan nan nan nan nan nan nan nan nan nan nan nan nan nan nan nan nan nan nan nan nan nan nan nan nan nan nan nan nan nan nan nan nan nan nan nan nan nan nan nan nan nan
nan nan nan nan nan nan nan nan nan nan nan nan nan nan nan nan nan nan nan nan nan nan nan nan nan nan nan nan nan nan nan nan nan nan nan nan nan nan nan nan nan nan nan nan nan nan nan nan nan nan nan nan nan nan nan nan nan nan nan nan nan nan nan nan nan nan nan nan nan nan nan nan nan nan nan nan nan nan nan nan nan nan nan nan nan
nan nan nan nan nan nan nan nan nan nan nan nan nan nan nan nan nan nan nan nan nan nan nan nan nan nan nan nan nan nan nan nan nan nan nan nan nan nan nan nan nan nan nan nan nan nan nan nan nan nan nan nan nan nan nan nan nan nan nan nan nan nan nan nan nan nan nan nan nan nan nan nan nan nan nan nan nan nan nan nan nan nan nan nan nan
nan nan nan nan nan nan nan nan nan nan nan nan nan nan nan nan nan nan nan nan nan nan nan nan nan nan nan nan nan nan nan nan nan nan nan nan nan nan nan nan nan nan nan nan nan nan nan nan nan nan nan nan nan nan nan nan nan nan nan nan nan nan nan nan nan nan nan nan nan nan nan nan nan nan nan nan nan nan nan nan nan nan nan nan nan